COSMOS 1275 DEB, 20505

Orbit data source: Space-Track

COSMOS 1275 DEB, 20505 is space debris in LEO originally from a launch on Thu, 04 Jun 1981 UTC launched from the Plesetsk Missile And Space Complex (PKMTR). Debris objects in space refer to the collection of defunct objects orbiting the Earth. Examples of debris include non-operational satellites, rocket bodies, and fragments generated from explosions, collisions, or faulty payload assembly.

Loading next visibility...
Identifier
20505, 1981-053MM
Orbit
LEO
Country
Flag of CISCIS
Related business
Manufacturer
Unknown
Mission
Spacecraft
Bus & Motor
Unknown
Mass
Unknown
Launch date (UTC)
1981-06-04 (45 years ago)
Launch vehicle
Unknown
Launch site
Plesetsk Missile And Space Complex (PKMTR)
Object type
Payload
Rocket body
Debris
Shape & HBR
Unknown shape, 0.1 m
Radar Cross Section
Small (<0.1 m²)

Expand to show TLE details & history
Last TLE update: 7 hours ago

TLE from 7 hours ago
0 COSMOS 1275 DEB
1 20505U 81053MM  26105.28342904  .00002460  00000-0  54763-3 0  9995
2 20505  83.1486 303.4124 0014714 198.0717 161.9964 14.56550028666304
Epoch: 2026-04-15T06:48Z
TLE epoch observation values (Epoch: 2026-04-15T06:48:08.269Z)
Latitude
0.00001°
Longitude
-2.0696°
Altitude
717.269 km
Speed
7.492 km/s
True Right ascension
20h 13m 38s
True Declination
0° 00' 00"
Sunlit
Object was in daylight at epoch
Visualization orbit readout
Latitude
Unknown
Longitude
Unknown
Altitude
Unknown
Speed
Unknown
Apparent Right ascension
Unknown
Apparent Declination
Unknown
Sunlit
N/A
Visualization observer readout
Local Sidereal Time
19:54:34
Azimuth
Unknown
Elevation
Unknown
Doppler factor
Unknown
Orbital elements
Apogee altitude
711.781 km
Perigee altitude
690.948 km
Semi-major axis
7,079.501 km
Eccentricity
0.00147
Inclination
83.1486°
RAAN
303.4124°
Arg. of periapsis
198.0717°
True anomaly
162.04842°
Mean anomaly
161.9964°
Eccentric anomaly
162.02242°
Mean motion
3.64367 °/min
Orbital period
98.8 mins
BSTAR
0.00054763
Loading maneuver chart data...
Computing Atmospheric mass density...
Loading historical data...
Loading historical data...
Loading historical data...
Loading historical data...
Loading historical data...
Loading historical data...
Loading historical data...

Documentation

Showing up to 5 results
|